Regional Weather Roundup
Issued by NWS

Home | Current Version | Previous Version | Text Only | Print | Product List | Glossary On
Versions: 1 2 3 4 5 6 7 8 9 10 11 12 13 14 15 16 17 18 19 20 21 22 23 24 25 26 27 28 29 30 31 32 33 34 35 36 37 38 39 40 41 42 43 44 45 46 47 48 49 50
000
ASUS43 KLOT 241509
RWRIL

ILLINOIS REGIONAL WEATHER ROUNDUP
NATIONAL WEATHER SERVICE CHICAGO/ROMEOVILLE IL
1000 AM CDT FRI MAY 24 2019

NOTE: "FAIR" INDICATES FEW OR NO CLOUDS BELOW 12,000 FEET WITH NO
SIGNIFICANT WEATHER AND/OR OBSTRUCTIONS TO VISIBILITY.

* THESE STATIONS ARE NOT UNDER NWS QUALITY CONTROL. THEY ALSO MAY NOT
  REPORT WEATHER SUCH AS PRECIPITATION OR FOG.

ILZ001-002-007-009-015-016-024-241600-
NORTHWEST ILLINOIS

CITY           SKY/WX    TMP DP  RH WIND       PRES   REMARKS
MOLINE         TSTM      63  57  81 S6        30.07R
STERLING*      CLOUDY    61  55  81 E15       30.07F
SAVANNA*       DRIZZLE   59  55  88 SE8       30.06F
$$

ILZ003-004-008-010-011-017-018-241600-
NORTH CENTRAL ILLINOIS

CITY           SKY/WX    TMP DP  RH WIND       PRES   REMARKS
ROCKFORD       CLOUDY    59  54  83 SE13      30.09S
FREEPORT*      CLOUDY    57  55  95 SE9       30.09F
ROCHELLE*      CLOUDY    59  56  89 SE8       30.09F
DE KALB*       CLOUDY    59  56  88 SE12      30.10S
PERU*          CLOUDY    62  54  74 E7        30.09S
$$

ILZ005-006-012>014-019>023-241600-
NORTHEAST ILLINOIS

CITY           SKY/WX    TMP DP  RH WIND       PRES   REMARKS
CHICAGO-OHARE  CLOUDY    59  52  77 SE12      30.10F
CHICAGO-MIDWAY CLOUDY    60  52  74 SE15G28   30.10S
AURORA         CLOUDY    61  54  77 E9        30.09R
LANSING*       CLOUDY    62  54  75 SE13      30.11F
JOLIET*        CLOUDY    63  56  78 E10       30.11R
WAUKEGAN       CLOUDY    53  50  89 SE9G22    30.08F
DUPAGE AIRPORT CLOUDY    61  53  75 SE10G18   30.10S
KANKAKEE*      CLOUDY    63  55  75 E13       30.10F
WHEELING       CLOUDY    58  52  80 SE10      30.11S
MORRIS*        CLOUDY    62  55  78 E9        30.09R
ROMEOVILLE*    CLOUDY    61  53  76 SE9G18    30.10S
NORTHERLY ISL    N/A     55  51  86 SE7         N/A
$$

LMZ740>746-241600-
SOUTHERN LAKE MICHIGAN

STATION/POSITION SKY/WX   TEMP    WIND        PRES    VSBY  WAVE
                          AIR SEA DIR/SP/G                  HT/PER
                          (F)     (DEG/KT/KT) (MB)    (MI)  (FT/S)
SOUTHERN BUOY              42 40  110/  6/  8 1019.8F         0
WINTHROP HARBOR            48 47  170/  4/  6   N/A           1
WAUKEGAN HARBOR            50 51  160/ 10/ 14   N/A           1
WILMETTE HARBOR            50     130/ 10/ 14 1019.8          1/ 2
HARRISON CRIB                     110/ 13/ 14   N/A
NORTHERLY ISL              55     130/  8/ 12   N/A
CALUMET HARBOR             54      90/  9/ 12 1019.0F
BURNS HARBOR               62     120/ 10/ 13 1019.6F
MICHIGAN CITY              60     110/ 17/ 21   N/A
MICHIGAN CITY 6N           58 52  130/ 12/ 17   N/A           1/ 3
ST. JOSEPH                 56 53  330/ 10/ 14 1019.6          1
$$

ILZ025>027-034>036-040-047-049-050-058-095>099-241600-
WEST-CENTRAL ILLINOIS

CITY           SKY/WX    TMP DP  RH WIND       PRES   REMARKS
QUINCY         CLOUDY    79  69  71 SW13      29.99F HX  81
GALESBURG*     LGT RAIN  66  58  76 E10G16    30.04F
MACOMB*        CLOUDY    70  65  83 E9        30.05S
JACKSONVILLE*  MOSUNNY   80  71  74 SW12G17   30.03F HX  83
PITTSFIELD*    MOSUNNY   81  72  76 S12       30.03F HX  85
$$

ILZ028>032-037-038-041>044-048-051>054-059>061-241600-
CENTRAL ILLINOIS

CITY           SKY/WX    TMP DP  RH WIND       PRES   REMARKS
PONTIAC        CLOUDY    64  59  82 E10       30.10R
BLOOMINGTON    CLOUDY    66  61  84 E12       30.10S
DECATUR        FAIR      79  69  71 SW14      30.06F HX  81
PEORIA         PTSUNNY   67  59  75 MISG      30.06F
LACON*         CLOUDY    64  56  74 SE10      30.07R
LINCOLN*       CLOUDY    77  71  83 CALM      30.05S
SPRINGFIELD    FAIR      79  72  79 SW9G18    30.04F HX  82
TAYLORVILLE    FAIR      79  72  78 SW9       30.06F HX  82
$$

ILZ033-039-045-046-055>057-062-063-241600-
EAST-CENTRAL ILLINOIS

CITY           SKY/WX    TMP DP  RH WIND       PRES   REMARKS
CHAMPAIGN      FAIR      77  70  79 S9        30.08S
DANVILLE*      FAIR      72  64  76 NE6       30.08R
RANTOUL*       PTSUNNY   67  62  85 NE14      30.10S
MATTOON        FAIR      78  70  76 S10       30.08S HX  80
PARIS*         FAIR      81  74  80 SW12      30.10S HX  86
$$

ILZ079-100>102-241600-
SOUTHWEST ILLINOIS

CITY           SKY/WX    TMP DP  RH WIND       PRES   REMARKS
ALTON          PTSUNNY   79  72  78 S8        30.07F HX  82
CAHOKIA*       MOSUNNY   81  70  69 S8        30.06F HX  84
SPARTA*        SUNNY     81  71  70 SW9       30.10F HX  85
$$

ILZ064>066-069>071-074>076-080>082-084>086-088>090-092>094-241600-
SOUTH-CENTRAL ILLINOIS

CITY           SKY/WX    TMP DP  RH WIND       PRES   REMARKS
CARBONDALE     FAIR      82  69  64 S10G21    30.10F HX  85
CAIRO*         FAIR      80  69  67 S6        30.14S HX  83
EFFINGHAM*     FAIR      81  70  68 S9G17     30.10F HX  84
MARION         MOSUNNY   79  70  73 S12       30.12S HX  81
MT. VERNON     FAIR      82  70  66 SW10      30.11S HX  86
CENTRALIA*     CLOUDY    82  72  72 SW16      30.09F HX  87
SALEM*         FAIR      82  71  69 SW12      30.10S HX  87
METROPOLIS*    FAIR      83  68  59 S6        30.15S HX  86
$$

ILZ067-068-072-073-078-083-087-091-241600-
SOUTHEAST ILLINOIS

CITY           SKY/WX    TMP DP  RH WIND       PRES   REMARKS
LAWRENCEVILLE  FAIR      83  69  62 SW10      30.10F HX  86
FLORA*         FAIR      83  70  64 SW6       30.10F HX  87
FAIRFIELD*     FAIR      82  69  63 SW7       30.10F HX  85
HARRISBURG*    FAIR      82  73  76 SW10      30.12S HX  87
ROBINSON*      FAIR      81  71  71 SW13      30.11S HX  84
CARMI*         FAIR      82  70  65 SW12      30.11S HX  86
$$

ABBREVIATIONS USED IN REMARKS
   TC - TEMPERATURE IN CELSIUS
  WCI - WIND CHILL INDEX
   HX - HEAT INDEX
  VSB - VISIBILITY
$$




USA.gov is the U.S. government's official web portal to all federal, state and local government web resources and services.